sat.trackr.live / text

‹ back to catalog

STARLINK-35432

NORAD 66021 · 2025-232S

PAYLOAD ACTIVE UNKNOWN

§ Identity

Operator
Country
US
Launch date
2025-10-16
Launch site
AFETR
Launch vehicle
Mass (kg)
RCS (m²)

Purposes: comms

External: N2YO · Heavens-Above · Gunter

§ Orbital elements

Epoch: 2026-09-20T05:29:18.770208Z

Period
93.85 min
Inclination
53.1586°
Eccentricity
0.0001030
Mean motion
15.34402595 rev/d
Perigee alt
462.0 km
Apogee alt
463.4 km
Semi-major
6,840.8 km
B*
3.2389e-4
RAAN
278.6461°
Arg perigee
86.8352°
Mean anomaly
273.2769°
Rev number
5,324

§ Raw data

STARLINK-354321 66021U 25232S   26263.22868947  .00010583  00000+0  32389-3 0  99982 66021  53.1586 278.6461 0001030  86.8352 273.2769 15.34402595 53243

JSON: /api/v1/satellites/66021 · /tle

For live sub-satellite position, see the globe view (requires WebGL).

§ Visibility from observer

Set your observer location to see the next 7 days of passes ≥ 10°. The values pass through the URL so the page stays shareable.

No JS? Fill the form by hand. The geolocation button needs JavaScript.